PAA114 KJFK-LFPO

Flight info

Callsign PAA114
Flight time N/A
Altitude 33000
Route DCT MERIT DCT HFD DCT PUT DCT KANNI N63B NANSO/N0480F350 DCT SUPRY/M083F350 DCT 46N050W 48N040W 50N030W 51N020W DCT DINIM DCT ELSOX DCT LESLU/N0482F350 DCT OXLOW M140 SAM Y8 GWC/N0414F230 N859 SITET/N0396F190 A34 BENAR/N0373F140 T17 CAD LUMAN9W
Aircraft L101/H-SDFGHIRWXY/S

Departure

Time N/A
Airport John F. Kennedy International Airport (KJFK)

Arrival

Time 2026-05-03 22:02
Airport Paris-Orly Airport (LFPO)
Time Latitude Longitude Altitude Speed Heading
2026-05-03 21:10 50.94344 -1.27144 33505 ft 481 kts 110°
2026-05-03 21:10 50.93395 -1.22050 33524 ft 483 kts 110°
2026-05-03 21:11 50.91622 -1.11741 33684 ft 485 kts 108°
2026-05-03 21:11 50.90771 -1.06570 33824 ft 485 kts 109°
2026-05-03 21:11 50.89882 -1.01416 33988 ft 485 kts 109°
2026-05-03 21:12 50.89024 -0.96317 34150 ft 485 kts 109°
2026-05-03 21:12 50.88176 -0.91139 34278 ft 486 kts 109°
2026-05-03 21:12 50.87320 -0.85966 34444 ft 485 kts 111°
2026-05-03 21:12 50.86080 -0.81040 34529 ft 477 kts 126°
2026-05-03 21:13 50.84074 -0.76987 34637 ft 462 kts 142°
2026-05-03 21:13 50.81630 -0.73750 34863 ft 459 kts 145°
2026-05-03 21:13 50.77456 -0.68302 34933 ft 467 kts 144°
2026-05-03 21:14 50.72382 -0.61947 34916 ft 464 kts 148°
2026-05-03 21:14 50.67120 -0.56091 34918 ft 462 kts 150°
2026-05-03 21:15 50.61735 -0.50576 34920 ft 462 kts 150°
2026-05-03 21:15 50.56492 -0.44827 34920 ft 463 kts 149°
2026-05-03 21:16 50.51196 -0.39099 34924 ft 462 kts 150°
2026-05-03 21:16 50.45841 -0.33508 34926 ft 461 kts 150°
2026-05-03 21:17 50.40508 -0.27892 34922 ft 462 kts 150°
2026-05-03 21:17 50.35181 -0.22282 34925 ft 461 kts 150°
2026-05-03 21:18 50.29853 -0.16723 34927 ft 460 kts 150°
2026-05-03 21:18 50.24144 -0.12693 34869 ft 444 kts 177°
2026-05-03 21:19 50.21103 -0.12802 34912 ft 435 kts 191°
2026-05-03 21:19 50.18141 -0.13727 35007 ft 437 kts 194°
2026-05-03 21:19 50.12136 -0.15581 34950 ft 440 kts 193°
2026-05-03 21:20 50.06220 -0.17637 34901 ft 441 kts 186°
2026-05-03 21:20 50.03156 -0.17317 34882 ft 443 kts 170°
2026-05-03 21:20 50.00195 -0.15972 34975 ft 445 kts 166°
2026-05-03 21:21 49.94318 -0.12607 34938 ft 454 kts 159°
2026-05-03 21:21 49.88886 -0.07530 34935 ft 459 kts 149°
2026-05-03 21:22 49.83737 -0.01650 34938 ft 460 kts 148°
2026-05-03 21:22 49.78611 0.04286 34938 ft 460 kts 148°
2026-05-03 21:23 49.73531 0.10293 34943 ft 460 kts 148°
2026-05-03 21:23 49.68078 0.15032 34925 ft 442 kts 168°
2026-05-03 21:24 49.62176 0.17695 34963 ft 446 kts 165°
2026-05-03 21:24 49.56371 0.20919 34960 ft 446 kts 166°
2026-05-03 21:25 49.50466 0.23566 34931 ft 443 kts 170°
2026-05-03 21:25 49.47473 0.24776 34506 ft 443 kts 170°
2026-05-03 21:25 49.44534 0.25991 33977 ft 432 kts 170°
2026-05-03 21:26 49.41667 0.27166 33413 ft 422 kts 171°
2026-05-03 21:26 49.38840 0.28290 32878 ft 418 kts 171°
2026-05-03 21:26 49.36020 0.29387 32347 ft 419 kts 171°
2026-05-03 21:26 49.33186 0.30521 31827 ft 421 kts 171°
2026-05-03 21:27 49.30348 0.31705 31304 ft 423 kts 170°
2026-05-03 21:27 49.27503 0.32914 30788 ft 425 kts 170°
2026-05-03 21:27 49.24653 0.34145 30287 ft 426 kts 169°
2026-05-03 21:27 49.21800 0.35411 29748 ft 428 kts 169°
2026-05-03 21:28 49.18930 0.36687 29165 ft 430 kts 169°
2026-05-03 21:28 49.16041 0.37904 28586 ft 432 kts 170°
2026-05-03 21:28 49.13149 0.39094 28015 ft 425 kts 169°
2026-05-03 21:28 49.10368 0.40289 27482 ft 417 kts 169°
2026-05-03 21:29 49.07590 0.41461 26958 ft 413 kts 169°
2026-05-03 21:29 49.04818 0.42582 26447 ft 410 kts 170°
2026-05-03 21:29 49.02063 0.43651 25941 ft 408 kts 169°
2026-05-03 21:29 48.99318 0.44776 25442 ft 407 kts 169°
2026-05-03 21:30 48.96599 0.45930 24960 ft 404 kts 169°
2026-05-03 21:30 48.93897 0.47072 24499 ft 402 kts 169°
2026-05-03 21:30 48.91196 0.48168 24049 ft 400 kts 169°
2026-05-03 21:30 48.88509 0.49244 23596 ft 399 kts 169°
2026-05-03 21:31 48.85835 0.50337 23079 ft 398 kts 169°
2026-05-03 21:31 48.83163 0.51445 22574 ft 396 kts 168°
2026-05-03 21:31 48.80510 0.52542 22065 ft 394 kts 169°
2026-05-03 21:31 48.77870 0.53605 21578 ft 391 kts 169°
2026-05-03 21:32 48.75248 0.54652 21084 ft 389 kts 169°
2026-05-03 21:32 48.72671 0.55684 20612 ft 387 kts 168°
2026-05-03 21:32 48.70082 0.56748 20155 ft 385 kts 168°
2026-05-03 21:32 48.67507 0.57807 19701 ft 382 kts 168°
2026-05-03 21:33 48.64944 0.58832 19241 ft 380 kts 168°
2026-05-03 21:33 48.62355 0.59849 18808 ft 378 kts 169°
2026-05-03 21:33 48.59816 0.60820 18386 ft 375 kts 169°
2026-05-03 21:33 48.57290 0.61808 17917 ft 374 kts 168°
2026-05-03 21:34 48.54819 0.62803 17449 ft 372 kts 168°
2026-05-03 21:34 48.52328 0.63818 16982 ft 369 kts 168°
2026-05-03 21:34 48.49857 0.64835 16531 ft 367 kts 168°
2026-05-03 21:34 48.47393 0.65828 16072 ft 366 kts 168°
2026-05-03 21:35 48.44942 0.66806 15637 ft 363 kts 168°
2026-05-03 21:35 48.42500 0.67768 15205 ft 362 kts 168°
2026-05-03 21:35 48.40076 0.68736 14781 ft 359 kts 168°
2026-05-03 21:35 48.37667 0.69695 14363 ft 357 kts 168°
2026-05-03 21:36 48.35265 0.70635 13947 ft 355 kts 168°
2026-05-03 21:36 48.32875 0.71573 13527 ft 354 kts 168°
2026-05-03 21:36 48.30500 0.72477 13203 ft 350 kts 167°
2026-05-03 21:36 48.28240 0.73839 12979 ft 354 kts 150°
2026-05-03 21:37 48.26428 0.76340 12917 ft 359 kts 129°
2026-05-03 21:37 48.25167 0.79523 12979 ft 351 kts 121°
2026-05-03 21:37 48.24003 0.82711 12970 ft 348 kts 118°
2026-05-03 21:37 48.23229 0.86194 12707 ft 360 kts 103°
2026-05-03 21:38 48.23082 0.89968 12403 ft 371 kts 88°
2026-05-03 21:38 48.23583 0.93705 12061 ft 358 kts 72°
2026-05-03 21:38 48.24700 0.96982 11772 ft 351 kts 57°
2026-05-03 21:38 48.26080 0.99997 11536 ft 351 kts 58°
2026-05-03 21:39 48.27374 1.03106 11259 ft 351 kts 60°
2026-05-03 21:39 48.28610 1.06240 11068 ft 348 kts 60°
2026-05-03 21:39 48.29815 1.09376 10998 ft 346 kts 61°
2026-05-03 21:39 48.31007 1.12519 10971 ft 346 kts 61°
2026-05-03 21:40 48.32196 1.15671 10964 ft 347 kts 62°
2026-05-03 21:40 48.33382 1.18825 10954 ft 346 kts 62°
2026-05-03 21:40 48.34564 1.21973 10952 ft 346 kts 62°
2026-05-03 21:40 48.35749 1.25131 10946 ft 347 kts 62°
2026-05-03 21:41 48.36938 1.28297 10954 ft 346 kts 62°
2026-05-03 21:41 48.38103 1.31414 10947 ft 347 kts 62°
2026-05-03 21:41 48.39295 1.34594 10723 ft 349 kts 62°
2026-05-03 21:41 48.40487 1.37769 10444 ft 346 kts 62°
2026-05-03 21:42 48.41641 1.40850 10196 ft 328 kts 62°
2026-05-03 21:42 48.42726 1.43752 10035 ft 308 kts 62°
2026-05-03 21:42 48.43761 1.46516 9996 ft 302 kts 62°
2026-05-03 21:42 48.44801 1.49293 9995 ft 306 kts 62°
2026-05-03 21:43 48.45848 1.52096 9977 ft 308 kts 62°
2026-05-03 21:43 48.46899 1.54898 9964 ft 307 kts 61°
2026-05-03 21:43 48.47954 1.57700 9956 ft 307 kts 62°
2026-05-03 21:43 48.49006 1.60505 9952 ft 308 kts 62°
2026-05-03 21:44 48.50059 1.63318 9950 ft 308 kts 62°
2026-05-03 21:44 48.51107 1.66125 9950 ft 307 kts 62°
2026-05-03 21:44 48.52129 1.68957 9949 ft 307 kts 64°
2026-05-03 21:44 48.53070 1.71852 9950 ft 307 kts 66°
2026-05-03 21:45 48.53977 1.74766 9949 ft 307 kts 66°
2026-05-03 21:45 48.54757 1.77758 9945 ft 306 kts 76°
2026-05-03 21:45 48.55238 1.80876 9957 ft 305 kts 81°
2026-05-03 21:45 48.55587 1.84035 9954 ft 305 kts 84°
2026-05-03 21:46 48.55856 1.87212 9951 ft 305 kts 85°
2026-05-03 21:46 48.56061 1.90394 9953 ft 305 kts 88°
2026-05-03 21:46 48.56220 1.93576 9957 ft 304 kts 88°
2026-05-03 21:46 48.56331 1.96767 9957 ft 304 kts 90°
2026-05-03 21:47 48.56389 1.99945 9958 ft 304 kts 91°
2026-05-03 21:47 48.56428 2.03131 9955 ft 304 kts 91°
2026-05-03 21:47 48.56468 2.06320 9960 ft 303 kts 91°
2026-05-03 21:47 48.56498 2.09506 9961 ft 303 kts 92°
2026-05-03 21:48 48.56527 2.12650 9959 ft 304 kts 91°
2026-05-03 21:48 48.56575 2.15834 9959 ft 304 kts 91°
2026-05-03 21:48 48.56635 2.19024 9956 ft 305 kts 90°
2026-05-03 21:48 48.56699 2.22220 9959 ft 305 kts 91°
2026-05-03 21:49 48.56762 2.25420 9959 ft 304 kts 91°
2026-05-03 21:49 48.56825 2.28610 9954 ft 304 kts 91°
2026-05-03 21:49 48.56886 2.31810 9955 ft 305 kts 91°
2026-05-03 21:49 48.56946 2.35034 9640 ft 308 kts 91°
2026-05-03 21:50 48.57005 2.38248 9215 ft 304 kts 91°
2026-05-03 21:50 48.57062 2.41428 8812 ft 301 kts 91°
2026-05-03 21:50 48.57119 2.44566 8429 ft 298 kts 91°
2026-05-03 21:50 48.57178 2.47677 8173 ft 293 kts 91°
2026-05-03 21:51 48.57232 2.50756 8041 ft 293 kts 91°
2026-05-03 21:51 48.57284 2.53832 7987 ft 293 kts 91°
2026-05-03 21:51 48.57337 2.56913 7972 ft 294 kts 91°
2026-05-03 21:51 48.57388 2.60001 7958 ft 294 kts 91°
2026-05-03 21:52 48.57440 2.63089 7895 ft 296 kts 91°
2026-05-03 21:52 48.57494 2.66218 7537 ft 297 kts 91°
2026-05-03 21:52 48.57558 2.69319 7140 ft 293 kts 86°
2026-05-03 21:52 48.58091 2.72276 6694 ft 294 kts 63°
2026-05-03 21:53 48.59332 2.74679 6306 ft 291 kts 39°
2026-05-03 21:53 48.61079 2.76139 5942 ft 286 kts 17°
2026-05-03 21:53 48.63009 2.76814 5630 ft 284 kts
2026-05-03 21:53 48.64942 2.77190 5268 ft 275 kts
2026-05-03 21:54 48.66825 2.77449 4899 ft 268 kts
2026-05-03 21:54 48.68666 2.77666 4520 ft 262 kts
2026-05-03 21:54 48.70467 2.77870 4148 ft 257 kts
2026-05-03 21:54 48.72187 2.78068 3827 ft 241 kts
2026-05-03 21:55 48.73810 2.78260 3385 ft 233 kts
2026-05-03 21:55 48.75396 2.78405 3089 ft 217 kts 353°
2026-05-03 21:55 48.76683 2.77641 2951 ft 189 kts 316°
2026-05-03 21:55 48.77358 2.76066 3039 ft 177 kts 289°
2026-05-03 21:56 48.77757 2.74272 3124 ft 181 kts 283°
2026-05-03 21:56 48.78111 2.72409 3107 ft 181 kts 280°
2026-05-03 21:56 48.78192 2.70526 3071 ft 178 kts 264°
2026-05-03 21:56 48.77996 2.68710 3043 ft 177 kts 256°
2026-05-03 21:57 48.77696 2.66903 3027 ft 177 kts 253°
2026-05-03 21:57 48.77374 2.65123 3023 ft 175 kts 252°
2026-05-03 21:57 48.77049 2.63342 3090 ft 175 kts 253°
2026-05-03 21:57 48.76733 2.61576 3101 ft 167 kts 253°
2026-05-03 21:58 48.76440 2.59967 2967 ft 150 kts 253°
2026-05-03 21:58 48.76169 2.58502 2777 ft 140 kts 252°
2026-05-03 21:58 48.75901 2.57060 2667 ft 148 kts 253°
2026-05-03 21:58 48.75712 2.56042 2606 ft 155 kts 253°
2026-05-03 21:59 48.75414 2.54447 2379 ft 158 kts 253°
2026-05-03 21:59 48.75116 2.52844 2102 ft 157 kts 253°
2026-05-03 21:59 48.74821 2.51270 1875 ft 154 kts 253°
2026-05-03 21:59 48.74528 2.49707 1659 ft 154 kts 253°
2026-05-03 22:00 48.74232 2.48129 1482 ft 158 kts 253°
2026-05-03 22:00 48.73930 2.46509 1263 ft 160 kts 252°
2026-05-03 22:00 48.73629 2.44893 1043 ft 160 kts 253°
2026-05-03 22:00 48.73323 2.43258 824 ft 161 kts 252°
2026-05-03 22:01 48.73018 2.41625 632 ft 161 kts 252°
2026-05-03 22:01 48.72708 2.39994 393 ft 159 kts 251°
2026-05-03 22:01 48.72432 2.38508 302 ft 125 kts 253°
2026-05-03 22:01 48.72241 2.37480 299 ft 80 kts 255°
2026-05-03 22:02 48.72174 2.36919 302 ft 24 kts 278°
2026-05-03 22:02 48.72186 2.36689 298 ft 15 kts 272°
2026-05-03 22:02 48.72198 2.36542 300 ft 14 kts 287°
2026-05-03 22:02 48.72244 2.36406 303 ft 16 kts 301°
2026-05-03 22:03 48.72303 2.36309 301 ft 12 kts 328°
2026-05-03 22:03 48.72381 2.36264 299 ft 10 kts 343°
2026-05-03 22:03 48.72438 2.36239 301 ft 6 kts 344°
2026-05-03 22:03 48.72448 2.36235 300 ft 1 kts 344°
2026-05-03 22:04 48.72471 2.36229 297 ft 5 kts 359°
2026-05-03 22:04 48.72502 2.36253 297 ft 4 kts 48°
2026-05-03 22:04 48.72514 2.36286 297 ft 0 kts 63°
2026-05-03 22:04 48.72520 2.36306 302 ft 4 kts 69°
2026-05-03 22:05 48.72532 2.36366 301 ft 8 kts 72°
2026-05-03 22:05 48.72582 2.36407 299 ft 10 kts 346°
2026-05-03 22:05 48.72619 2.36392 301 ft 4 kts 344°
2026-05-03 22:05 48.72622 2.36391 297 ft 0 kts 344°